Location: De Bree
(52.0806°N, 4.8278°E)
Time: 21:04:18
(UTC+00:00)

Daily predictions for brighter satellites

Satellite Brightness Start Highest point End
(mag) Time Altitude Azimuth Time Altitude Azimuth Time Altitude Azimuth
Cosmos 2360 Rocket 2.3 15:58:50 10° SSW 16:04:29 74° ESE 16:10:11 10° NNE
CZ-4C R/B 4.3 16:02:17 10° N 16:05:15 35° WNW 16:08:09 10° SW
SL-16 R/B 4.0 16:01:08 10° N 16:06:29 32° WNW 16:11:49 10° WSW
SMAP 3.7 16:02:59 10° SE 16:07:11 34° ENE 16:11:24 10° N
Cosmos 2369 Rocket 4.0 16:06:07 10° N 16:08:51 14° NNE 16:11:36 10° NE
NOSS 2-2 (C) 3.5 16:05:55 10° SW 16:09:37 70° NW 16:14:03 10° NE
Cosmos 1980 Rocket 3.8 16:06:28 10° W 16:11:14 26° NW 16:16:01 10° NNE
Cosmos 1400 Rocket 2.9 16:07:48 10° SSW 16:11:55 86° WNW 16:16:00 10° NNE
ALOS 2.6 16:10:32 10° S 16:15:12 73° WSW 16:19:53 10° NNW
Cosmos 304 Rocket 3.7 16:11:48 10° NNW 16:16:39 74° ENE 16:21:28 10° SSE
Okean O Rocket 1.7 16:12:24 10° SSE 16:16:45 86° WSW 16:21:08 10° NNW
Cosmos 1484 Rocket 4.3 16:13:23 10° S 16:17:12 43° W 16:21:04 10° NNW
Cosmos 2333 Rocket 2.9 16:13:32 10° S 16:18:47 38° ESE 16:24:05 10° NE
Cosmos 494 Rocket 4.0 16:17:09 10° SSW 16:22:24 73° ESE 16:27:40 10° NNE
Meteor 1-11 Rocket 4.1 16:18:33 10° N 16:24:18 46° ENE 16:30:00 10° SE
Cosmos 332 Rocket 4.5 16:19:41 10° NNW 16:24:30 60° WSW 16:29:15 10° S
Cosmos 2228 Rocket 3.6 16:20:33 10° SSW 16:25:05 65° WNW 16:29:41 10° N
Cosmos 2237 Rocket 3.6 16:22:29 10° SE 16:26:18 19° E 16:29:56 11° ENE
Radarsat Rocket 4.1 16:20:32 10° SSE 16:26:42 82° WSW 16:32:34 10° NNW
Cosmos 2279 Rocket 4.0 16:22:55 10° N 16:29:12 75° E 16:35:27 10° SSE
Cosmos 2322 Rocket 3.0 16:24:19 10° SW 16:29:45 47° NW 16:35:14 10° NNE
Okean-O 3.3 16:27:18 10° SE 16:31:16 33° ENE 16:35:14 10° N
NOSS 2-2 (E) 4.2 16:28:10 10° WSW 16:31:52 45° NNW 16:36:24 10° NE
NOAA 12 4.5 16:27:53 10° SE 16:32:49 41° ENE 16:37:46 10° N
Cosmos 1812 3.9 16:29:51 10° SE 16:33:00 24° E 16:36:09 10° NE
Cosmos 1269 Rocket 4.0 16:28:18 10° SSW 16:33:36 75° ESE 16:38:56 10° NNE
Cosmos 1634 Rocket 4.4 16:29:04 10° NNW 16:35:11 68° W 16:41:19 10° S
ATLAS 2AS CENTAUR R/B 3.1 16:27:23 10° SW 16:35:25 90° S 16:43:21 10° NE
Cosmos 1707 Rocket 3.7 16:31:38 10° S 16:36:00 57° E 16:40:25 10° NNE
SL-16 R/B 3.3 16:31:18 10° WSW 16:36:36 39° NW 16:41:57 10° NNE
STARLINK-67 2.9 16:34:01 10° WSW 16:36:44 54° SSE 16:38:49 15° E
RESURS DK-1 3.2 16:33:13 10° S 16:36:53 32° ESE 16:39:58 13° NE
Exosat Rocket 4.4 16:34:08 10° SSE 16:38:38 29° ESE 16:42:27 12° NE
BREEZE-M DEB (TANK) 4.5 16:36:06 10° W 16:39:00 24° SSW 16:40:57 10° SSE
Cosmos 2219 Rocket 2.4 16:36:04 10° S 16:41:30 53° ESE 16:46:57 10° NE
CORIOLIS 4.2 16:37:14 10° SSE 16:42:36 61° ENE 16:48:00 10° N
AQUARIUS 4.2 16:39:14 10° SSE 16:43:40 62° ENE 16:48:08 10° N
Cosmos 1844 Rocket 4.4 16:38:38 10° NW 16:43:42 36° WSW 16:48:45 10° S
Cosmos 1302 Rocket 4.5 16:41:09 10° NNW 16:46:24 66° WSW 16:51:36 10° SSE
Cosmos 1340 4.0 16:45:49 10° NNW 16:49:26 44° W 16:53:02 10° S
Cosmos 1500 3.2 16:46:04 10° N 16:49:49 55° ENE 16:53:30 10° SSE
SeaSat 1 4.0 16:48:20 15° ENE 16:50:05 18° NNE 16:53:19 10° N
Cosmos 1908 Rocket 4.2 16:47:31 10° N 16:51:31 32° ENE 16:55:26 10° SE
Feng Yun 1-1 Rocket 4.1 16:46:49 10° SSE 16:52:13 84° ENE 16:57:39 10° NNW
Nadezhda 4 Rocket 4.3 16:47:26 10° SSE 16:53:24 46° E 16:59:23 10° NNE
STARLINK-46 4.0 16:52:04 10° SSW 16:54:19 24° SSE 16:55:24 19° ESE
COSMO-SKYMED 1 3.9 16:53:11 18° ENE 16:54:35 20° E 16:57:49 10° SE
Cosmos 1943 Rocket 3.5 16:51:34 10° NNW 16:55:46 21° NNE 16:57:51 17° ENE
Cosmos 1980 4.5 16:51:35 10° SSE 16:56:29 32° ESE 16:59:58 17° NE
Cosmos 1689 Rocket 3.5 16:53:40 10° N 16:56:33 39° WNW 16:59:24 10° SW
Cosmos 2297 4.2 16:51:56 10° NNW 16:57:15 37° NE 17:02:31 10° ESE
Cosmos 1536 3.0 16:54:58 10° N 16:58:52 46° ENE 17:02:45 10° SSE
Cosmos 2251 Rocket 4.0 16:54:28 10° S 16:59:25 40° ESE 17:03:18 15° NE
YAOGAN 6 3.3 16:57:01 10° SE 17:00:08 30° ENE 17:03:19 10° N
H-2A R/B 2.6 16:59:26 10° SSE 17:03:08 88° WSW 17:06:51 10° NNW
Cosmos 1441 Rocket 4.2 16:59:56 10° N 17:03:12 25° ENE 17:05:56 13° ESE
IRS-1C Rocket 4.3 16:59:27 10° S 17:04:43 74° WSW 17:10:02 10° NNW
USA 215 3.3 16:59:38 17° ENE 17:05:00 89° S 17:11:33 10° WSW
CSL-04 Rocket 4.1 17:01:49 10° SE 17:06:33 35° ENE 17:11:20 10° N
YAOGAN 1 3.3 17:03:03 10° ESE 17:06:47 29° ENE 17:10:32 10° N
PSLV R/B 4.0 17:06:11 10° NNE 17:10:24 82° WNW 17:14:32 10° SSW
COSMOS 2428 2.7 17:05:30 10° SSW 17:11:11 82° ESE 17:16:06 14° NNE
Meteor 1-5 Rocket 4.4 17:06:32 10° NNW 17:12:09 75° W 17:17:32 10° S
CZ-4 R/B 1.8 17:08:35 10° SE 17:12:09 35° ENE 17:15:42 10° N
Lacrosse 5 rocket 2.0 17:11:01 10° SSW 17:15:01 40° SE 17:16:37 27° E
Cosmos 1733 Rocket 3.4 17:13:03 10° NNW 17:17:24 69° W 17:21:46 10° S
Envisat 2.9 17:14:03 10° SSE 17:19:07 76° ENE 17:24:14 10° NNW
Okean 1-7 4.2 17:16:18 10° SE 17:19:10 24° ESE 17:19:10 24° ESE
CSL-04 Debris 4.4 17:14:58 10° SE 17:20:07 45° ENE 17:25:17 10° N
NOSS 7 (D) 4.2 17:17:40 10° NW 17:20:35 75° SW 17:23:12 15° SE
SL-4 R/B 2.1 17:19:52 10° WSW 17:23:35 57° SSE 17:25:07 33° E
Cosmos 1867 4.0 17:22:39 10° NW 17:27:53 42° NE 17:30:02 29° E
Genesis I 3.2 17:24:07 10° NW 17:28:00 55° NE 17:29:11 38° E
ISS -1.8 17:25:21 10° W 17:28:16 28° SSW 17:31:04 11° SSE
Cosmos 1992 Rocket 4.3 17:25:42 10° NNW 17:30:54 70° WSW 17:36:06 10° SSE
FengYun 1-2 T 4.1 17:26:25 10° SSE 17:31:52 75° ENE 17:37:23 10° NNW
Cosmos 1666 2.5 17:30:43 10° N 17:34:29 73° ENE 17:38:12 10° SSE
NOSS 3-1 (C) 4.4 17:29:30 10° NW 17:35:56 41° NNE 17:39:19 28° ENE
CZ-4B R/B 4.4 17:34:35 10° NNW 17:36:10 13° WNW 17:37:45 10° W
Sich 1 Rocket 4.0 17:34:03 10° N 17:37:45 38° NE 17:37:45 38° NE
Cosmos 2278 Rocket 3.1 17:34:35 10° NW 17:40:04 51° WSW 17:45:31 10° S
NOAA 11 4.3 17:35:21 10° SE 17:40:35 49° ENE 17:45:51 10° N
NOSS 5 (C) 4.5 17:37:28 10° NW 17:40:36 78° SW 17:42:21 29° SE
COBE Rocket 4.0 17:36:01 10° N 17:40:39 69° WNW 17:45:17 10° SSW
SKYMED 2 3.6 17:41:52 40° NE 17:43:05 54° E 17:47:19 10° S
USA 229 DEB 4.3 17:36:57 10° NW 17:43:37 43° NNE 17:46:21 31° ENE
Cosmos 2344 4.4 17:35:19 10° NW 17:43:39 51° NNE 17:49:34 28° E
USA 229 4.3 17:37:04 10° NW 17:43:42 42° NNE 17:46:26 31° ENE
CZ-4 R/B 4.3 17:40:34 10° SSE 17:44:45 82° ENE 17:48:56 10° NNW
COSMOS 2455 4.3 17:39:54 10° W 17:45:01 28° NNW 17:48:44 16° NNE
Cosmos 1782 Rocket 3.5 17:41:42 10° N 17:46:03 59° ENE 17:50:19 10° SSE
NOSS 3-4 (A) 3.9 17:42:40 10° WSW 17:48:40 56° NW 17:52:28 25° NE
NOSS 3-1 (A) 4.5 17:42:24 10° NW 17:48:42 39° NNE 17:51:17 30° ENE
Cosmos 921 Rocket 2.9 17:44:31 10° NNW 17:48:44 61° ENE 17:49:41 47° ESE
NOSS 3-4 (C) 3.9 17:42:45 10° WSW 17:48:47 56° NNW 17:52:34 25° NE
Cosmos 2360 Rocket 3.8 17:44:09 10° W 17:49:03 29° NW 17:53:27 12° NNE
NOSS 0 Rocket 3.9 17:43:59 10° SSW 17:50:13 81° ESE 17:53:49 27° NE
Cosmos 2195 Rocket 4.4 17:46:12 10° S 17:52:20 65° E 17:58:34 10° NNE
NOAA 15 4.4 17:47:44 10° SSE 17:53:00 79° ENE 17:58:17 10° NNW
Cosmos 2369 Rocket 2.9 17:49:38 10° NNW 17:54:28 33° NE 17:54:28 33° NE
Cosmos 1980 Rocket 4.4 17:55:05 10° NW 17:57:24 12° NNW 17:59:42 10° NNE
SL-16 R/B 2.9 17:52:41 10° S 17:57:01 33° ESE 17:57:01 33° ESE
Cosmos 1862 Rocket 4.3 17:53:40 10° SSW 17:57:55 51° WNW 18:01:59 11° N
Cosmos 1092 Rocket 3.9 17:52:34 10° S 17:58:53 83° E 18:05:12 10° NNE
Cosmos 2242 Rocket 3.8 17:55:26 10° SSW 18:00:00 75° W 18:03:10 20° N
Cosmos 1703 Rocket 3.4 17:56:06 10° S 18:00:32 70° E 18:01:05 62° NE
Ariane Rocket 3.6 18:03:29 38° NNE 18:03:29 38° NNE 18:07:06 10° N
Cosmos 2333 Rocket 3.0 17:57:25 10° SW 18:02:58 49° NW 18:06:46 20° NNE
Cosmos 292 Rocket 4.4 18:02:15 10° NNW 18:07:03 57° WSW 18:11:48 10° S
Okean-O 4.2 18:03:38 10° SSW 18:07:43 35° W 18:11:49 10° NNW
Cosmos 1812 4.3 18:05:05 10° SW 18:08:39 34° WNW 18:11:26 15° N
Cosmos 2237 Rocket 2.1 18:03:54 10° SSW 18:09:37 89° WNW 18:11:47 40° NNE
BREEZE-M R/B 3.0 18:05:10 10° W 18:09:34 56° SSW 18:09:34 56° SSW
RESURS DK-1 3.6 18:11:00 10° WSW 18:14:52 37° NW 18:15:53 32° NNW
Cosmos 2322 Rocket 4.4 18:11:45 10° WNW 18:15:17 17° NNW 18:18:16 12° N
SL-16 R/B 4.4 18:19:11 10° WNW 18:22:24 15° NNW 18:24:58 12° N
Cosmos 2219 Rocket 3.4 18:20:31 10° WSW 18:25:42 37° NW 18:28:41 22° N
S3M 3.8 18:20:03 10° N 18:26:17 67° ENE 18:27:13 59° ESE
SeaSat 1 3.1 18:28:08 44° N 18:28:08 44° N 18:31:41 10° NNW
ATLAS 2AS CENTAUR R/B 3.8 18:19:42 10° W 18:27:20 44° NNW 18:30:48 29° NNE
COSMO-SKYMED 1 3.2 18:30:24 49° NW 18:31:05 55° WNW 18:35:19 10° SSW
Cosmos 1980 4.2 18:34:46 10° SW 18:40:19 56° NW 18:41:51 43° N
Cosmos 1553 Rocket 4.0 18:34:11 10° NNW 18:40:33 81° W 18:46:57 10° S
Cosmos 1943 Rocket 2.5 18:34:57 10° NNW 18:39:24 53° N 18:39:24 53° N
Meteor 1-18 Rocket 4.2 18:35:23 10° S 18:40:29 71° S 18:40:29 71° S
Cosmos 2297 4.4 18:36:07 10° NW 18:41:40 53° WSW 18:45:25 20° S
YAOGAN 1 3.9 18:38:43 10° SSW 18:42:47 39° W 18:46:52 10° NNW
CZ-4 R/B 3.5 18:43:59 10° SSW 18:47:16 25° W 18:50:32 10° NW
USA 215 3.4 18:46:59 56° NNE 18:47:51 60° N 18:54:16 10° W
H-2A R/B 4.4 18:56:22 11° N 18:56:22 11° N 18:56:35 10° N
Lacrosse 5 rocket 3.1 18:49:58 10° WSW 18:52:16 30° W 18:52:16 30° W
COSMOS 2428 4.4 18:51:19 10° W 18:56:07 27° NW 18:58:08 22° N
SL-4 R/B 4.3 18:59:11 10° W 19:00:43 23° W 19:00:43 23° W
Cosmos 1867 4.4 19:06:20 10° NW 19:10:44 48° W 19:10:44 48° W
NOSS 3-1 (C) 4.0 19:20:26 10° NW 19:26:44 71° NW 19:26:44 71° NW
USA 229 DEB 4.2 19:28:05 10° NW 19:33:49 61° NW 19:33:49 61° NW
USA 229 4.2 19:28:12 10° NW 19:33:53 60° NW 19:33:53 60° NW
Cosmos 2369 Rocket 3.8 19:33:34 10° NW 19:36:16 29° NW 19:36:16 29° NW
NOSS 3-1 (A) 4.4 19:33:26 10° NW 19:38:44 54° NNW 19:38:44 54° NNW
SL-16 R/B 3.9 19:36:09 10° SW 19:38:57 28° WSW 19:38:57 28° WSW
Cosmos 2333 Rocket 4.5 19:44:57 10° WNW 19:48:43 17° NNW 19:48:46 17° NNW
Cosmos 2237 Rocket 4.1 19:49:49 10° W 19:53:39 24° NW 19:53:39 24° NW
Cosmos 2344 4.3 19:49:49 10° NW 19:59:12 80° SW 19:59:37 78° SSW
ATLAS 2AS CENTAUR R/B 4.3 20:12:58 10° WNW 20:18:14 32° NNW 20:18:14 32° NNW
